| time (UTC) | temp F | wind direction | speed knots | gust knots | rain 1hr in | rain 24hr in | rain mn in | humidity % | barometer mb |
| 20260902075001 | 61 | 223 | 0.0 | 2.6 | 0.00 | 0.00 | 0.00 | 83 | 1013.2 |
| 20260902074614 | 62 | 223 | 0.9 | 2.6 | 0.00 | 0.00 | 0.00 | 83 | 1013.2 |
| 20260902074100 | 62 | 219 | 0.0 | 0.9 | 0.00 | 0.00 | 0.00 | 83 | 1013.2 |
| 20260902073559 | 62 | 219 | 0.0 | 0.0 | 0.00 | 0.00 | 0.00 | 83 | 1013.4 |
| 20260902073059 | 62 | 219 | 0.0 | 0.0 | 0.00 | 0.00 | 0.00 | 83 | 1013.4 |
| 20260902072601 | 62 | 219 | 0.0 | 1.7 | 0.00 | 0.00 | 0.00 | 83 | 1013.5 |
| 20260902072058 | 62 | 219 | 0.0 | 1.7 | 0.00 | 0.00 | 0.00 | 83 | 1013.5 |
| 20260902071558 | 62 | 215 | 0.0 | 0.0 | 0.00 | 0.00 | 0.00 | 83 | 1013.6 |
| 20260902071055 | 62 | 215 | 0.0 | 0.0 | 0.00 | 0.00 | 0.00 | 83 | 1013.6 |
| 20260902070555 | 62 | 215 | 0.0 | 0.0 | 0.00 | 0.00 | 0.00 | 83 | 1013.7 |
| 20260902070055 | 62 | 215 | 0.0 | 0.0 | 0.00 | 0.00 | 0.00 | 82 | 1013.6 |
| 20260902065554 | 62 | 215 | 0.0 | 0.0 | 0.00 | 0.00 | 0.00 | 82 | 1013.7 |
| 20260902065054 | 63 | 215 | 0.0 | 0.0 | 0.00 | 0.00 | 0.00 | 82 | 1013.7 |
| 20260902064553 | 63 | 215 | 0.0 | 0.0 | 0.00 | 0.00 | 0.00 | 81 | 1013.8 |
| 20260902064053 | 63 | 215 | 0.0 | 0.0 | 0.00 | 0.00 | 0.00 | 81 | 1013.7 |
| 20260902063551 | 63 | 215 | 0.0 | 0.0 | 0.00 | 0.00 | 0.00 | 80 | 1013.8 |
| 20260902063110 | 64 | 215 | 0.0 | 0.0 | 0.00 | 0.00 | 0.00 | 79 | 1013.7 |
| 20260902062550 | 64 | 215 | 0.0 | 0.0 | 0.00 | 0.00 | 0.00 | 78 | 1013.9 |
| 20260902062048 | 65 | 215 | 0.0 | 0.0 | 0.00 | 0.00 | 0.00 | 78 | 1013.9 |
| 20260902061552 | 65 | 215 | 0.0 | 0.0 | 0.00 | 0.00 | 0.00 | 77 | 1013.9 |
| 20260902061048 | 65 | 215 | 0.0 | 0.0 | 0.00 | 0.00 | 0.00 | 77 | 1013.9 |
| 20260902060545 | 65 | 215 | 0.0 | 0.0 | 0.00 | 0.00 | 0.00 | 76 | 1013.8 |
| 20260902055543 | 66 | 215 | 0.0 | 0.0 | 0.00 | 0.00 | 0.00 | 75 | 1013.8 |
| 20260902055043 | 66 | 215 | 0.0 | 0.0 | 0.00 | 0.00 | 0.00 | 74 | 1013.9 |
| 20260902054543 | 66 | 215 | 0.0 | 0.0 | 0.00 | 0.00 | 0.00 | 73 | 1013.8 |
| 20260902054042 | 67 | 215 | 0.0 | 0.0 | 0.00 | 0.00 | 0.00 | 72 | 1013.7 |
| 20260902053542 | 67 | 215 | 0.0 | 0.0 | 0.00 | 0.00 | 0.00 | 72 | 1013.7 |
| 20260902053039 | 67 | 215 | 0.0 | 0.0 | 0.00 | 0.00 | 0.00 | 71 | 1013.7 |
| 20260902052540 | 67 | 215 | 0.0 | 0.0 | 0.00 | 0.00 | 0.00 | 71 | 1013.7 |
| 20260902052037 | 67 | 215 | 0.0 | 0.0 | 0.00 | 0.00 | 0.00 | 71 | 1013.6 |
| 20260902051545 | 68 | 215 | 0.0 | 0.0 | 0.00 | 0.00 | 0.00 | 71 | 1013.5 |
| 20260902051035 | 68 | 215 | 0.0 | 0.0 | 0.00 | 0.00 | 0.00 | 70 | 1013.5 |
| 20260902050534 | 69 | 215 | 0.0 | 0.0 | 0.00 | 0.00 | 0.00 | 70 | 1013.6 |
| 20260902050033 | 69 | 215 | 0.0 | 1.7 | 0.00 | 0.00 | 0.00 | 69 | 1013.6 |
| 20260902045532 | 69 | 215 | 0.0 | 1.7 | 0.00 | 0.00 | 0.00 | 69 | 1013.6 |
| 20260902045032 | 69 | 215 | 0.0 | 1.7 | 0.00 | 0.00 | 0.00 | 68 | 1013.5 |
| 20260902044532 | 69 | 215 | 0.0 | 2.6 | 0.00 | 0.00 | 0.00 | 68 | 1013.4 |
| 20260902044033 | 70 | 215 | 0.9 | 2.6 | 0.00 | 0.00 | 0.00 | 67 | 1013.5 |
| 20260902043532 | 70 | 215 | 0.0 | 0.0 | 0.00 | 0.00 | 0.00 | 67 | 1013.6 |
| 20260902043034 | 70 | 215 | 0.0 | 0.0 | 0.00 | 0.00 | 0.00 | 67 | 1013.5 |
| 20260902042532 | 70 | 215 | 0.0 | 0.0 | 0.00 | 0.00 | 0.00 | 66 | 1013.6 |
| 20260902042032 | 70 | 215 | 0.0 | 0.0 | 0.00 | 0.00 | 0.00 | 65 | 1013.7 |
| 20260902041549 | 70 | 215 | 0.0 | 0.0 | 0.00 | 0.00 | 0.00 | 65 | 1013.7 |
| 20260902041031 | 71 | 215 | 0.0 | 1.7 | 0.00 | 0.00 | 0.00 | 64 | 1013.7 |
| 20260902040531 | 71 | 215 | 0.0 | 2.6 | 0.00 | 0.00 | 0.00 | 64 | 1013.9 |
| 20260902040031 | 71 | 215 | 0.0 | 2.6 | 0.00 | 0.00 | 0.00 | 63 | 1013.8 |
| 20260902035534 | 72 | 216 | 0.9 | 2.6 | 0.00 | 0.00 | 0.00 | 62 | 1013.7 |
| 20260902035031 | 72 | 242 | 0.0 | 1.7 | 0.00 | 0.00 | 0.00 | 61 | 1013.9 |
| 20260902034531 | 72 | 325 | 0.0 | 1.7 | 0.00 | 0.00 | 0.00 | 60 | 1013.9 |
| 20260902034030 | 72 | 341 | 0.0 | 0.0 | 0.00 | 0.00 | 0.00 | 60 | 1013.8 |
| 20260902033531 | 72 | 341 | 0.0 | 0.0 | 0.00 | 0.00 | 0.00 | 59 | 1013.9 |
| 20260902033030 | 72 | 341 | 0.0 | 0.0 | 0.00 | 0.00 | 0.00 | 59 | 1013.8 |
| 20260902032530 | 72 | 341 | 0.0 | 0.0 | 0.00 | 0.00 | 0.00 | 59 | 1013.7 |
| 20260902032029 | 72 | 341 | 0.0 | 0.0 | 0.00 | 0.00 | 0.00 | 58 | 1013.5 |
| 20260902031530 | 73 | 341 | 0.0 | 0.9 | 0.00 | 0.00 | 0.00 | 58 | 1013.4 |
| 20260902031030 | 73 | 341 | 0.0 | 0.9 | 0.00 | 0.00 | 0.00 | 57 | 1013.4 |
| 20260902030530 | 73 | 341 | 0.0 | 0.9 | 0.00 | 0.00 | 0.00 | 57 | 1013.4 |
| 20260902030029 | 73 | 341 | 0.0 | 0.0 | 0.00 | 0.00 | 0.00 | 56 | 1013.5 |
| 20260902025530 | 74 | 341 | 0.0 | 0.0 | 0.00 | 0.00 | 0.00 | 55 | 1013.5 |
| 20260902025029 | 74 | 341 | 0.0 | 0.9 | 0.00 | 0.00 | 0.00 | 55 | 1013.5 |
| 20260902024529 | 74 | 341 | 0.0 | 0.9 | 0.00 | 0.00 | 0.00 | 55 | 1013.6 |
| 20260902024028 | 74 | 341 | 0.0 | 0.9 | 0.00 | 0.00 | 0.00 | 55 | 1013.6 |
| 20260902023528 | 74 | 341 | 0.0 | 0.9 | 0.00 | 0.00 | 0.00 | 54 | 1013.5 |
| 20260902023028 | 74 | 341 | 0.0 | 0.9 | 0.00 | 0.00 | 0.00 | 54 | 1013.6 |
| 20260902022528 | 74 | 340 | 0.0 | 0.0 | 0.00 | 0.00 | 0.00 | 54 | 1013.5 |
| 20260902022027 | 74 | 340 | 0.0 | 0.9 | 0.00 | 0.00 | 0.00 | 54 | 1013.4 |
| 20260902021527 | 75 | 340 | 0.0 | 1.7 | 0.00 | 0.00 | 0.00 | 53 | 1013.4 |
| 20260902021027 | 75 | 340 | 0.0 | 1.7 | 0.00 | 0.00 | 0.00 | 54 | 1013.5 |
| 20260902020528 | 75 | 340 | 0.0 | 2.6 | 0.00 | 0.00 | 0.00 | 53 | 1013.4 |
| 20260902020029 | 75 | 341 | 0.9 | 2.6 | 0.00 | 0.00 | 0.00 | 52 | 1013.3 |
| 20260902015526 | 75 | 341 | 0.0 | 1.7 | 0.00 | 0.00 | 0.00 | 52 | 1013.4 |
| 20260902015028 | 75 | 341 | 0.0 | 2.6 | 0.00 | 0.00 | 0.00 | 52 | 1013.3 |
| 20260902014527 | 75 | 341 | 0.9 | 4.3 | 0.00 | 0.00 | 0.00 | 52 | 1013.3 |
| 20260902014027 | 76 | 342 | 0.9 | 4.3 | 0.00 | 0.00 | 0.00 | 52 | 1013.3 |
| 20260902013526 | 76 | 325 | 1.7 | 5.2 | 0.00 | 0.00 | 0.00 | 52 | 1013.4 |
| 20260902013026 | 76 | 331 | 0.9 | 5.2 | 0.00 | 0.00 | 0.00 | 52 | 1013.2 |
| 20260902012528 | 76 | 333 | 1.7 | 7.0 | 0.00 | 0.00 | 0.00 | 52 | 1013.2 |
| 20260902012029 | 76 | 320 | 0.9 | 7.0 | 0.00 | 0.00 | 0.00 | 51 | 1013.2 |
| 20260902011526 | 76 | 323 | 1.7 | 7.0 | 0.00 | 0.00 | 0.00 | 51 | 1013.3 |
| 20260902011029 | 77 | 310 | 2.6 | 7.0 | 0.00 | 0.00 | 0.00 | 51 | 1013.2 |
| 20260902010525 | 77 | 323 | 1.7 | 3.5 | 0.00 | 0.00 | 0.00 | 51 | 1013.2 |
| 20260902010030 | 77 | 323 | 0.9 | 4.3 | 0.00 | 0.00 | 0.00 | 51 | 1013.3 |
| 20260902005525 | 77 | 300 | 1.7 | 4.3 | 0.00 | 0.00 | 0.00 | 51 | 1013.3 |
| 20260902005025 | 77 | 291 | 0.9 | 4.3 | 0.00 | 0.00 | 0.00 | 51 | 1013.3 |
| 20260902004530 | 78 | 270 | 1.7 | 4.3 | 0.00 | 0.00 | 0.00 | 51 | 1013.3 |
| 20260902004003 | 78 | 292 | 0.9 | 5.2 | 0.00 | 0.00 | 0.00 | 50 | 1013.3 |
| 20260902003503 | 78 | 281 | 2.6 | 5.2 | 0.00 | 0.00 | 0.00 | 50 | 1013.5 |
| 20260902003010 | 78 | 284 | 0.9 | 4.3 | 0.00 | 0.00 | 0.00 | 50 | 1013.3 |
| 20260902002502 | 78 | 286 | 1.7 | 5.2 | 0.00 | 0.00 | 0.00 | 50 | 1013.3 |
| 20260902002002 | 78 | 284 | 1.7 | 5.2 | 0.00 | 0.00 | 0.00 | 50 | 1013.2 |
| 20260902001502 | 78 | 272 | 1.7 | 6.1 | 0.00 | 0.00 | 0.00 | 50 | 1013.2 |
| 20260902001003 | 78 | 297 | 0.9 | 5.2 | 0.00 | 0.00 | 0.00 | 50 | 1013.3 |
| 20260902000502 | 78 | 291 | 1.7 | 7.0 | 0.00 | 0.00 | 0.00 | 49 | 1013.3 |
| 20260902000004 | 78 | 321 | 2.6 | 7.0 | 0.00 | 0.00 | 0.00 | 49 | 1013.3 |
| 20260901235502 | 79 | 261 | 2.6 | 7.0 | 0.00 | 0.00 | 0.00 | 49 | 1013.3 |
| 20260901235001 | 79 | 303 | 1.7 | 8.7 | 0.00 | 0.00 | 0.00 | 49 | 1013.3 |
| 20260901234502 | 79 | 298 | 2.6 | 8.7 | 0.00 | 0.00 | 0.00 | 48 | 1013.2 |
| 20260901234001 | 79 | 310 | 3.5 | 7.8 | 0.00 | 0.00 | 0.00 | 49 | 1013.2 |
| 20260901233500 | 79 | 291 | 3.5 | 7.8 | 0.00 | 0.00 | 0.00 | 48 | 1013.3 |
| 20260901233101 | 79 | 318 | 1.7 | 6.1 | 0.00 | 0.00 | 0.00 | 48 | 1013.4 |
| 20260901232600 | 79 | 300 | 1.7 | 6.1 | 0.00 | 0.00 | 0.00 | 47 | 1013.4 |
| 20260901232100 | 80 | 277 | 3.5 | 8.7 | 0.00 | 0.00 | 0.00 | 47 | 1013.3 |
| 20260901231604 | 80 | 253 | 3.5 | 8.7 | 0.00 | 0.00 | 0.00 | 47 | 1013.3 |
| 20260901231059 | 80 | 250 | 3.5 | 8.7 | 0.00 | 0.00 | 0.00 | 46 | 1013.4 |
| 20260901230559 | 80 | 271 | 3.5 | 8.7 | 0.00 | 0.00 | 0.00 | 47 | 1013.3 |
| 20260901230059 | 80 | 276 | 4.3 | 8.7 | 0.00 | 0.00 | 0.00 | 46 | 1013.4 |
| 20260901225559 | 80 | 281 | 3.5 | 8.7 | 0.00 | 0.00 | 0.00 | 46 | 1013.5 |
| 20260901225058 | 80 | 260 | 2.6 | 8.7 | 0.00 | 0.00 | 0.00 | 46 | 1013.4 |
| 20260901224605 | 80 | 286 | 2.6 | 9.6 | 0.00 | 0.00 | 0.00 | 46 | 1013.5 |
| 20260901224059 | 80 | 271 | 3.5 | 8.7 | 0.00 | 0.00 | 0.00 | 45 | 1013.5 |
| 20260901223558 | 80 | 286 | 3.5 | 9.6 | 0.00 | 0.00 | 0.00 | 47 | 1013.6 |
| 20260901223059 | 81 | 317 | 4.3 | 9.6 | 0.00 | 0.00 | 0.00 | 45 | 1013.5 |
| 20260901222558 | 81 | 265 | 2.6 | 9.6 | 0.00 | 0.00 | 0.00 | 46 | 1013.5 |
| 20260901222058 | 81 | 315 | 3.5 | 9.6 | 0.00 | 0.00 | 0.00 | 45 | 1013.7 |
| 20260901221607 | 81 | 286 | 3.5 | 8.7 | 0.00 | 0.00 | 0.00 | 45 | 1013.7 |
| 20260901221058 | 80 | 273 | 2.6 | 8.7 | 0.00 | 0.00 | 0.00 | 45 | 1013.9 |
| 20260901220556 | 80 | 300 | 3.5 | 10.4 | 0.00 | 0.00 | 0.00 | 45 | 1013.8 |
| 20260901220056 | 80 | 267 | 4.3 | 10.4 | 0.00 | 0.00 | 0.00 | 44 | 1013.8 |
| 20260901215558 | 80 | 276 | 3.5 | 10.4 | 0.00 | 0.00 | 0.00 | 44 | 1013.9 |
| 20260901215056 | 81 | 257 | 1.7 | 10.4 | 0.00 | 0.00 | 0.00 | 44 | 1013.7 |
| 20260901214557 | 80 | 262 | 5.2 | 10.4 | 0.00 | 0.00 | 0.00 | 43 | 1013.6 |
| 20260901214056 | 80 | 273 | 5.2 | 10.4 | 0.00 | 0.00 | 0.00 | 43 | 1013.5 |
| 20260901213600 | 80 | 240 | 3.5 | 8.7 | 0.00 | 0.00 | 0.00 | 44 | 1013.5 |
| 20260901213059 | 80 | 273 | 2.6 | 9.6 | 0.00 | 0.00 | 0.00 | 45 | 1013.5 |
| 20260901212558 | 80 | 267 | 5.2 | 9.6 | 0.00 | 0.00 | 0.00 | 45 | 1013.5 |
| 20260901212056 | 80 | 276 | 2.6 | 9.6 | 0.00 | 0.00 | 0.00 | 44 | 1013.5 |
| 20260901211556 | 81 | 290 | 3.5 | 8.7 | 0.00 | 0.00 | 0.00 | 44 | 1013.6 |
| 20260901211055 | 81 | 250 | 2.6 | 8.7 | 0.00 | 0.00 | 0.00 | 44 | 1013.6 |
| 20260901210558 | 81 | 299 | 3.5 | 9.6 | 0.00 | 0.00 | 0.00 | 43 | 1013.6 |
| 20260901210122 | 81 | 255 | 5.2 | 9.6 | 0.00 | 0.00 | 0.00 | 43 | 1013.7 |
| 20260901205554 | 81 | 289 | 1.7 | 8.7 | 0.00 | 0.00 | 0.00 | 43 | 1013.7 |
| 20260901205054 | 81 | 238 | 5.2 | 8.7 | 0.00 | 0.00 | 0.00 | 43 | 1013.6 |
| 20260901204553 | 82 | 228 | 4.3 | 10.4 | 0.00 | 0.00 | 0.00 | 41 | 1013.5 |
| 20260901204053 | 82 | 262 | 3.5 | 10.4 | 0.00 | 0.00 | 0.00 | 42 | 1013.5 |
| 20260901203554 | 82 | 261 | 3.5 | 10.4 | 0.00 | 0.00 | 0.00 | 42 | 1013.6 |
| 20260901203054 | 82 | 303 | 5.2 | 12.2 | 0.00 | 0.00 | 0.00 | 41 | 1013.5 |
| 20260901202554 | 82 | 257 | 1.7 | 12.2 | 0.00 | 0.00 | 0.00 | 42 | 1013.6 |
| 20260901202056 | 82 | 310 | 5.2 | 13.0 | 0.00 | 0.00 | 0.00 | 42 | 1013.5 |
| 20260901201554 | 83 | 307 | 3.5 | 13.0 | 0.00 | 0.00 | 0.00 | 43 | 1013.5 |
| 20260901201054 | 83 | 335 | 1.7 | 8.7 | 0.00 | 0.00 | 0.00 | 43 | 1013.5 |
| 20260901200554 | 83 | 303 | 1.7 | 7.8 | 0.00 | 0.00 | 0.00 | 44 | 1013.4 |
| 20260901200052 | 83 | 291 | 1.7 | 7.8 | 0.00 | 0.00 | 0.00 | 43 | 1013.4 |
| 20260901195552 | 83 | 226 | 1.7 | 9.6 | 0.00 | 0.00 | 0.00 | 45 | 1013.4 |
| 20260901195051 | 82 | 257 | 3.5 | 9.6 | 0.00 | 0.00 | 0.00 | 44 | 1013.6 |
| 20260901194602 | 82 | 237 | 2.6 | 10.4 | 0.00 | 0.00 | 0.00 | 45 | 1013.5 |
| 20260901194051 | 82 | 269 | 1.7 | 10.4 | 0.00 | 0.00 | 0.00 | 44 | 1013.7 |
| 20260901193555 | 82 | 276 | 2.6 | 9.6 | 0.00 | 0.00 | 0.00 | 46 | 1013.7 |
| 20260901193053 | 82 | 269 | 1.7 | 9.6 | 0.00 | 0.00 | 0.00 | 45 | 1013.8 |
| 20260901192551 | 82 | 255 | 1.7 | 9.6 | 0.00 | 0.00 | 0.00 | 45 | 1013.9 |
| 20260901192051 | 81 | 279 | 5.2 | 11.3 | 0.00 | 0.00 | 0.00 | 45 | 1013.9 |
| 20260901191600 | 82 | 269 | 0.9 | 8.7 | 0.00 | 0.00 | 0.00 | 47 | 1014.0 |
| 20260901191051 | 82 | 211 | 2.6 | 7.8 | 0.00 | 0.00 | 0.00 | 46 | 1014.1 |
| 20260901190549 | 82 | 306 | 2.6 | 7.8 | 0.00 | 0.00 | 0.00 | 45 | 1014.0 |
| 20260901190115 | 82 | 288 | 4.3 | 13.0 | 0.00 | 0.00 | 0.00 | 45 | 1014.0 |
| 20260901185549 | 82 | 243 | 5.2 | 13.0 | 0.00 | 0.00 | 0.00 | 43 | 1014.0 |
| 20260901185049 | 82 | 293 | 3.5 | 13.0 | 0.00 | 0.00 | 0.00 | 43 | 1014.0 |
| 20260901184549 | 83 | 288 | 3.5 | 13.9 | 0.00 | 0.00 | 0.00 | 42 | 1014.0 |
| 20260901184049 | 83 | 251 | 7.0 | 13.9 | 0.00 | 0.00 | 0.00 | 42 | 1014.0 |
| 20260901183548 | 84 | 276 | 4.3 | 10.4 | 0.00 | 0.00 | 0.00 | 42 | 1014.0 |
| 20260901183047 | 83 | 288 | 2.6 | 9.6 | 0.00 | 0.00 | 0.00 | 44 | 1014.0 |
| 20260901182545 | 83 | 244 | 3.5 | 9.6 | 0.00 | 0.00 | 0.00 | 43 | 1014.1 |
| 20260901182045 | 83 | 307 | 4.3 | 9.6 | 0.00 | 0.00 | 0.00 | 48 | 1014.2 |
| 20260901181544 | 82 | 259 | 1.7 | 7.8 | 0.00 | 0.00 | 0.00 | 46 | 1014.3 |
| 20260901181042 | 82 | 309 | 3.5 | 8.7 | 0.00 | 0.00 | 0.00 | 46 | 1014.3 |
| 20260901180541 | 82 | 304 | 4.3 | 12.2 | 0.00 | 0.00 | 0.00 | 47 | 1014.4 |
| 20260901180039 | 81 | 281 | 8.7 | 12.2 | 0.00 | 0.00 | 0.00 | 46 | 1014.5 |
| 20260901175537 | 81 | 279 | 3.5 | 12.2 | 0.00 | 0.00 | 0.00 | 46 | 1014.5 |
| 20260901175037 | 81 | 267 | 4.3 | 10.4 | 0.00 | 0.00 | 0.00 | 46 | 1014.6 |
| 20260901174547 | 81 | 232 | 3.5 | 12.2 | 0.00 | 0.00 | 0.00 | 48 | 1014.6 |
| 20260901174038 | 81 | 290 | 6.1 | 13.0 | 0.00 | 0.00 | 0.00 | 47 | 1014.6 |
| 20260901173536 | 81 | 17 | 4.3 | 13.0 | 0.00 | 0.00 | 0.00 | 47 | 1014.7 |
| 20260901173036 | 81 | 348 | 4.3 | 10.4 | 0.00 | 0.00 | 0.00 | 46 | 1014.7 |
| 20260901172535 | 81 | 279 | 3.5 | 9.6 | 0.00 | 0.00 | 0.00 | 47 | 1014.7 |
| 20260901172035 | 81 | 305 | 1.7 | 8.7 | 0.00 | 0.00 | 0.00 | 48 | 1014.6 |
| 20260901171533 | 80 | 310 | 2.6 | 8.7 | 0.00 | 0.00 | 0.00 | 47 | 1014.7 |
| 20260901171033 | 80 | 286 | 4.3 | 9.6 | 0.00 | 0.00 | 0.00 | 48 | 1014.7 |
| 20260901170535 | 80 | 305 | 4.3 | 12.2 | 0.00 | 0.00 | 0.00 | 47 | 1014.8 |
| 20260901170031 | 80 | 287 | 4.3 | 10.4 | 0.00 | 0.00 | 0.00 | 47 | 1014.7 |
| 20260901165535 | 80 | 250 | 5.2 | 9.6 | 0.00 | 0.00 | 0.00 | 48 | 1014.8 |
| 20260901165032 | 80 | 270 | 1.7 | 6.1 | 0.00 | 0.00 | 0.00 | 50 | 1014.7 |
| 20260901164533 | 80 | 215 | 2.6 | 8.7 | 0.00 | 0.00 | 0.00 | 48 | 1014.8 |
| 20260901164030 | 80 | 265 | 0.9 | 8.7 | 0.00 | 0.00 | 0.00 | 51 | 1014.9 |
| 20260901163528 | 80 | 305 | 2.6 | 6.1 | 0.00 | 0.00 | 0.00 | 51 | 1015.0 |
| 20260901163050 | 79 | 274 | 0.9 | 7.0 | 0.00 | 0.00 | 0.00 | 53 | 1015.0 |
| 20260901162525 | 79 | 272 | 3.5 | 7.8 | 0.00 | 0.00 | 0.00 | 52 | 1015.0 |
| 20260901162025 | 79 | 238 | 0.9 | 6.1 | 0.00 | 0.00 | 0.00 | 54 | 1014.9 |
| 20260901161524 | 79 | 337 | 1.7 | 7.0 | 0.00 | 0.00 | 0.00 | 55 | 1014.9 |
| 20260901161023 | 78 | 290 | 1.7 | 6.1 | 0.00 | 0.00 | 0.00 | 55 | 1014.9 |
| 20260901160521 | 78 | 229 | 2.6 | 4.3 | 0.00 | 0.00 | 0.00 | 56 | 1014.8 |
| 20260901160020 | 78 | 298 | 0.0 | 5.2 | 0.00 | 0.00 | 0.00 | 58 | 1014.7 |
| 20260901155519 | 77 | 273 | 0.9 | 5.2 | 0.00 | 0.00 | 0.00 | 56 | 1014.8 |
| 20260901155018 | 77 | 313 | 0.9 | 4.3 | 0.00 | 0.00 | 0.00 | 59 | 1014.7 |
| 20260901154532 | 77 | 284 | 0.9 | 6.1 | 0.00 | 0.00 | 0.00 | 60 | 1014.8 |
| 20260901154015 | 76 | 275 | 1.7 | 6.1 | 0.00 | 0.00 | 0.00 | 61 | 1015.0 |
| 20260901153514 | 75 | 285 | 0.9 | 7.0 | 0.00 | 0.00 | 0.00 | 61 | 1015.0 |
| 20260901153022 | 75 | 311 | 2.6 | 7.0 | 0.00 | 0.00 | 0.00 | 59 | 1015.1 |
| 20260901152510 | 75 | 273 | 1.7 | 5.2 | 0.00 | 0.00 | 0.00 | 61 | 1015.0 |
| 20260901152009 | 74 | 289 | 0.9 | 4.3 | 0.00 | 0.00 | 0.00 | 63 | 1014.9 |
| 20260901151511 | 74 | 281 | 1.7 | 3.5 | 0.00 | 0.00 | 0.00 | 64 | 1015.0 |
| 20260901151007 | 74 | 194 | 0.9 | 4.3 | 0.00 | 0.00 | 0.00 | 62 | 1015.0 |
| 20260901150505 | 73 | 280 | 1.7 | 4.3 | 0.00 | 0.00 | 0.00 | 65 | 1015.1 |
| 20260901150003 | 72 | 285 | 0.0 | 5.2 | 0.00 | 0.00 | 0.00 | 65 | 1015.1 |
| 20260901145500 | 72 | 258 | 0.9 | 4.3 | 0.00 | 0.00 | 0.00 | 64 | 1015.1 |
| 20260901145059 | 71 | 293 | 1.7 | 5.2 | 0.00 | 0.00 | 0.00 | 65 | 1015.2 |
| 20260901144601 | 71 | 254 | 1.7 | 6.1 | 0.00 | 0.00 | 0.00 | 66 | 1015.2 |
| 20260901144101 | 70 | 287 | 0.0 | 6.1 | 0.00 | 0.00 | 0.00 | 67 | 1015.1 |
| 20260901143556 | 69 | 266 | 1.7 | 4.3 | 0.00 | 0.00 | 0.00 | 67 | 1015.1 |
| 20260901143055 | 68 | 229 | 1.7 | 5.2 | 0.00 | 0.00 | 0.00 | 70 | 1015.2 |
| 20260901142554 | 67 | 249 | 0.9 | 3.5 | 0.00 | 0.00 | 0.00 | 72 | 1015.3 |
| 20260901142052 | 66 | 240 | 0.9 | 6.1 | 0.00 | 0.00 | 0.00 | 73 | 1015.3 |
| 20260901141551 | 65 | 291 | 1.7 | 6.1 | 0.00 | 0.00 | 0.00 | 75 | 1015.2 |
| 20260901141050 | 64 | 296 | 0.9 | 5.2 | 0.00 | 0.00 | 0.00 | 75 | 1015.3 |
| 20260901140548 | 63 | 269 | 1.7 | 5.2 | 0.00 | 0.00 | 0.00 | 76 | 1015.3 |
| 20260901140058 | 63 | 251 | 0.0 | 2.6 | 0.00 | 0.00 | 0.00 | 78 | 1015.2 |
| 20260901135549 | 62 | 251 | 0.9 | 4.3 | 0.00 | 0.00 | 0.00 | 77 | 1015.3 |
| 20260901135049 | 61 | 261 | 0.9 | 4.3 | 0.00 | 0.00 | 0.00 | 78 | 1015.3 |
| 20260901134559 | 61 | 243 | 0.9 | 4.3 | 0.00 | 0.00 | 0.00 | 79 | 1015.4 |
| 20260901134048 | 61 | 234 | 1.7 | 5.2 | 0.00 | 0.00 | 0.00 | 79 | 1015.3 |
| 20260901133547 | 60 | 213 | 2.6 | 6.1 | 0.00 | 0.00 | 0.00 | 79 | 1015.4 |
| 20260901133100 | 60 | 190 | 2.6 | 7.0 | 0.00 | 0.00 | 0.00 | 79 | 1015.4 |
| 20260901132550 | 60 | 206 | 2.6 | 6.1 | 0.00 | 0.00 | 0.00 | 80 | 1015.3 |
| 20260901132047 | 60 | 219 | 0.9 | 6.1 | 0.00 | 0.00 | 0.00 | 81 | 1015.2 |
| 20260901131551 | 59 | 200 | 1.7 | 4.3 | 0.00 | 0.00 | 0.00 | 82 | 1015.2 |
| 20260901131047 | 59 | 207 | 1.7 | 5.2 | 0.00 | 0.00 | 0.00 | 82 | 1015.1 |
| 20260901130544 | 59 | 203 | 0.9 | 5.2 | 0.00 | 0.00 | 0.00 | 82 | 1015.1 |
| 20260901130044 | 59 | 191 | 0.9 | 5.2 | 0.00 | 0.00 | 0.00 | 81 | 1015.1 |
| 20260901125543 | 59 | 211 | 1.7 | 5.2 | 0.00 | 0.00 | 0.00 | 80 | 1015.0 |
| 20260901125043 | 59 | 167 | 0.9 | 5.2 | 0.00 | 0.00 | 0.00 | 80 | 1015.0 |
| 20260901124542 | 59 | 197 | 1.7 | 6.1 | 0.00 | 0.00 | 0.00 | 80 | 1014.9 |
| 20260901124041 | 59 | 185 | 3.5 | 6.1 | 0.00 | 0.00 | 0.00 | 81 | 1014.7 |
| 20260901123539 | 59 | 207 | 0.9 | 1.7 | 0.00 | 0.00 | 0.00 | 81 | 1014.7 |
| 20260901123041 | 59 | 207 | 0.0 | 2.6 | 0.00 | 0.00 | 0.00 | 80 | 1014.6 |
| 20260901122538 | 59 | 209 | 0.9 | 2.6 | 0.00 | 0.00 | 0.00 | 79 | 1014.5 |
| 20260901122037 | 60 | 229 | 0.0 | 1.7 | 0.00 | 0.00 | 0.00 | 79 | 1014.3 |
| 20260901121545 | 60 | 229 | 0.0 | 2.6 | 0.00 | 0.00 | 0.00 | 79 | 1014.3 |
| 20260901121037 | 59 | 230 | 0.9 | 2.6 | 0.00 | 0.00 | 0.00 | 79 | 1014.3 |
| 20260901120536 | 59 | 259 | 0.9 | 2.6 | 0.00 | 0.00 | 0.00 | 79 | 1014.2 |
| 20260901120038 | 59 | 277 | 0.0 | 2.6 | 0.00 | 0.00 | 0.00 | 79 | 1014.2 |
| 20260901115537 | 59 | 277 | 0.9 | 3.5 | 0.00 | 0.00 | 0.00 | 79 | 1014.1 |
| 20260901115034 | 59 | 277 | 1.7 | 3.5 | 0.00 | 0.00 | 0.00 | 79 | 1014.1 |
| 20260901114534 | 60 | 271 | 0.9 | 3.5 | 0.00 | 0.00 | 0.00 | 78 | 1014.1 |
| 20260901114033 | 60 | 269 | 0.0 | 2.6 | 0.00 | 0.00 | 0.00 | 78 | 1014.1 |
| 20260901113533 | 60 | 251 | 0.0 | 2.6 | 0.00 | 0.00 | 0.00 | 78 | 1014.1 |
| 20260901113033 | 60 | 259 | 0.9 | 5.2 | 0.00 | 0.00 | 0.00 | 78 | 1014.1 |
| 20260901112531 | 60 | 261 | 1.7 | 5.2 | 0.00 | 0.00 | 0.00 | 78 | 1013.9 |
| 20260901112031 | 60 | 285 | 2.6 | 5.2 | 0.00 | 0.00 | 0.00 | 78 | 1013.7 |
| 20260901111531 | 60 | 274 | 2.6 | 5.2 | 0.00 | 0.00 | 0.00 | 79 | 1013.7 |
| 20260901111033 | 59 | 276 | 2.6 | 5.2 | 0.00 | 0.00 | 0.00 | 79 | 1013.8 |
| 20260901110529 | 59 | 264 | 1.7 | 3.5 | 0.00 | 0.00 | 0.00 | 79 | 1013.6 |
| 20260901110030 | 59 | 263 | 1.7 | 3.5 | 0.00 | 0.00 | 0.00 | 79 | 1013.9 |
| 20260901105530 | 59 | 269 | 0.0 | 3.5 | 0.00 | 0.00 | 0.00 | 79 | 1013.8 |
| 20260901105128 | 59 | 269 | 0.0 | 3.5 | 0.00 | 0.00 | 0.00 | 79 | 1013.7 |
| 20260901104537 | 59 | 254 | 1.7 | 3.5 | 0.00 | 0.00 | 0.00 | 79 | 1013.5 |
| 20260901104030 | 59 | 250 | 0.0 | 2.6 | 0.00 | 0.00 | 0.00 | 79 | 1013.5 |
| 20260901103528 | 59 | 250 | 0.0 | 1.7 | 0.00 | 0.00 | 0.00 | 79 | 1013.5 |
| 20260901103033 | 59 | 250 | 0.0 | 1.7 | 0.00 | 0.00 | 0.00 | 79 | 1013.5 |
| 20260901102527 | 59 | 250 | 0.0 | 0.9 | 0.00 | 0.00 | 0.00 | 79 | 1013.6 |
| 20260901102026 | 59 | 250 | 0.0 | 0.9 | 0.00 | 0.00 | 0.00 | 78 | 1013.4 |
| 20260901101525 | 59 | 250 | 0.0 | 1.7 | 0.00 | 0.00 | 0.00 | 78 | 1013.5 |
| 20260901101025 | 59 | 250 | 0.0 | 1.7 | 0.00 | 0.00 | 0.00 | 78 | 1013.4 |
| 20260901100524 | 59 | 250 | 0.9 | 1.7 | 0.00 | 0.00 | 0.00 | 77 | 1013.3 |
| 20260901100023 | 60 | 250 | 0.0 | 0.9 | 0.00 | 0.00 | 0.00 | 77 | 1013.3 |
| 20260901095522 | 60 | 250 | 0.0 | 0.9 | 0.00 | 0.00 | 0.00 | 77 | 1013.3 |
| 20260901095022 | 60 | 250 | 0.0 | 1.7 | 0.00 | 0.00 | 0.00 | 76 | 1013.3 |
| 20260901094523 | 60 | 250 | 0.0 | 1.7 | 0.00 | 0.00 | 0.00 | 76 | 1013.4 |
| 20260901094021 | 60 | 250 | 0.0 | 0.0 | 0.00 | 0.00 | 0.00 | 76 | 1013.3 |
| 20260901093520 | 61 | 250 | 0.0 | 0.0 | 0.00 | 0.00 | 0.00 | 75 | 1013.2 |
| 20260901093020 | 61 | 250 | 0.0 | 0.0 | 0.00 | 0.00 | 0.00 | 75 | 1013.2 |
| 20260901092519 | 61 | 250 | 0.0 | 0.0 | 0.00 | 0.00 | 0.00 | 74 | 1013.2 |
| 20260901092018 | 61 | 250 | 0.0 | 0.0 | 0.00 | 0.00 | 0.00 | 74 | 1013.1 |
| 20260901091518 | 61 | 250 | 0.0 | 0.9 | 0.00 | 0.00 | 0.00 | 73 | 1013.2 |
| 20260901091017 | 62 | 250 | 0.0 | 2.6 | 0.00 | 0.00 | 0.00 | 73 | 1013.2 |
| 20260901090516 | 62 | 250 | 0.0 | 2.6 | 0.00 | 0.00 | 0.00 | 73 | 1013.2 |
| 20260901090025 | 62 | 249 | 0.0 | 0.0 | 0.00 | 0.00 | 0.00 | 73 | 1013.2 |
| 20260901085515 | 62 | 249 | 0.0 | 0.0 | 0.00 | 0.01 | 0.00 | 72 | 1013.2 |
| 20260901085014 | 62 | 249 | 0.0 | 0.0 | 0.00 | 0.01 | 0.00 | 72 | 1013.2 |
| 20260901084514 | 62 | 249 | 0.0 | 0.0 | 0.00 | 0.01 | 0.00 | 72 | 1013.2 |
| 20260901084013 | 63 | 249 | 0.0 | 1.7 | 0.00 | 0.01 | 0.00 | 71 | 1013.1 |
| 20260901083513 | 63 | 249 | 0.0 | 1.7 | 0.00 | 0.01 | 0.00 | 71 | 1013.0 |
| 20260901083013 | 63 | 259 | 0.0 | 2.6 | 0.00 | 0.01 | 0.00 | 71 | 1013.1 |
| 20260901082512 | 63 | 259 | 0.9 | 2.6 | 0.00 | 0.01 | 0.00 | 71 | 1013.0 |
| 20260901082011 | 63 | 259 | 0.9 | 2.6 | 0.00 | 0.01 | 0.00 | 70 | 1013.0 |
| 20260901081511 | 63 | 259 | 0.0 | 2.6 | 0.00 | 0.01 | 0.00 | 70 | 1013.0 |
| 20260901081010 | 64 | 259 | 0.0 | 2.6 | 0.00 | 0.01 | 0.00 | 70 | 1013.0 |
| 20260901080510 | 64 | 258 | 0.0 | 3.5 | 0.00 | 0.01 | 0.00 | 69 | 1013.0 |
| 20260901080014 | 64 | 257 | 0.9 | 5.2 | 0.00 | 0.01 | 0.00 | 69 | 1013.1 |
| 20260901075508 | 64 | 277 | 2.6 | 5.2 | 0.00 | 0.01 | 0.00 | 68 | 1013.1 |